Voltar ao catálogo

USA 299 DEB

AtivoVLEO
NORAD 54246·DEBRIS·🇺🇸 United States

Lançado May 17, 2020 de Cape Canaveral Space Force Station

Loading…

Próximas Passagens (próximas 24 horas)

TLE

ObsoletoSource: Space-Track

Época: Nov 17, 2022, 12:24 UTC

1 54246U 20029D   22321.51699172  .00842765  10104-4  43283-3 0  9999
2 54246  45.0264  56.9144 0004159  40.5718  79.0108 16.19563101  3198

Acompanhe USA 299 DEB em tempo real com AllMySat

Download on the App Store